TimeCDT,TemperatureF,Dew PointF,Humidity,Sea Level PressureIn,VisibilityMPH,Wind Direction,Wind SpeedMPH,Gust SpeedMPH,PrecipitationIn,Events,Conditions,WindDirDegrees,DateUTC
12:18 AM,63.0,61.0,93,29.92,10.0,SSE,17.3,27.6,0.01,Rain-Thunderstorm,Light Thunderstorms and Rain,150,2014-03-28 05:18:00
12:33 AM,64.0,61.0,90,29.93,10.0,SSE,16.1,24.2,0.01,,Overcast,160,2014-03-28 05:33:00
12:53 AM,64.0,61.0,90,29.91,10.0,SSE,18.4,23.0,0.01,,Overcast,160,2014-03-28 05:53:00
1:12 AM,64.0,62.1,93,29.90,10.0,SSE,23.0,31.1,0.00,Rain,Light Rain,150,2014-03-28 06:12:00
1:39 AM,64.0,62.1,93,29.91,10.0,South,18.4,-,0.00,,Overcast,170,2014-03-28 06:39:00
1:53 AM,64.0,62.1,93,29.89,10.0,SSE,13.8,-,0.00,,Overcast,150,2014-03-28 06:53:00
2:23 AM,64.0,62.1,93,29.90,10.0,South,13.8,-,0.00,Rain-Thunderstorm,Light Thunderstorms and Rain,170,2014-03-28 07:23:00
2:53 AM,64.0,63.0,96,29.86,6.0,SSE,16.1,27.6,0.06,Rain-Thunderstorm,Rain,160,2014-03-28 07:53:00
3:02 AM,64.0,63.0,96,29.88,8.0,SSE,12.7,23.0,0.01,Rain-Thunderstorm,Light Thunderstorms and Rain,160,2014-03-28 08:02:00
3:53 AM,64.0,63.0,96,29.84,10.0,SSE,11.5,-,0.03,,Overcast,160,2014-03-28 08:53:00
4:07 AM,64.9,63.0,93,29.84,10.0,SSE,13.8,23.0,N/A,Thunderstorm,Overcast,150,2014-03-28 09:07:00
4:19 AM,64.9,63.0,93,29.85,10.0,South,11.5,-,0.01,Rain-Thunderstorm,Light Thunderstorms and Rain,170,2014-03-28 09:19:00
4:53 AM,64.9,63.0,93,29.84,10.0,South,11.5,20.7,0.01,Thunderstorm,Overcast,170,2014-03-28 09:53:00
5:21 AM,66.0,64.0,93,29.89,8.0,Variable,5.8,-,0.00,Rain-Thunderstorm,Light Thunderstorms and Rain,0,2014-03-28 10:21:00
5:36 AM,64.9,63.0,93,29.90,8.0,NNW,8.1,-,0.01,Rain-Thunderstorm,Light Rain,340,2014-03-28 10:36:00
5:41 AM,64.9,62.1,90,29.91,10.0,NNW,11.5,-,0.01,Rain-Thunderstorm,Light Thunderstorms and Rain,330,2014-03-28 10:41:00
5:53 AM,64.0,61.0,90,29.91,3.0,NNW,17.3,25.3,0.13,Rain-Thunderstorm,Thunderstorms and Rain,330,2014-03-28 10:53:00
5:55 AM,64.0,61.0,90,29.92,1.8,NNW,15.0,-,0.10,Rain-Thunderstorm,Heavy Thunderstorms and Rain,340,2014-03-28 10:55:00
6:06 AM,63.0,62.1,97,29.92,0.8,NNW,6.9,-,0.54,Rain-Thunderstorm,Heavy Thunderstorms and Rain,340,2014-03-28 11:06:00
6:23 AM,63.0,62.1,97,29.92,0.5,SSW,8.1,18.4,1.23,Fog-Rain-Thunderstorm,Heavy Thunderstorms and Rain,210,2014-03-28 11:23:00
6:35 AM,63.0,62.1,97,29.91,1.5,North,5.8,-,1.42,Rain-Thunderstorm,Heavy Thunderstorms and Rain,10,2014-03-28 11:35:00
6:43 AM,63.0,62.1,97,29.91,2.0,NNW,6.9,-,1.54,Rain-Thunderstorm,Heavy Thunderstorms and Rain,340,2014-03-28 11:43:00
6:50 AM,62.6,62.6,100,29.89,1.0,Calm,Calm,-,1.64,Rain-Thunderstorm,Heavy Thunderstorms and Rain,0,2014-03-28 11:50:00
6:53 AM,63.0,62.1,97,29.89,1.2,Calm,Calm,-,1.66,Rain-Thunderstorm,Heavy Thunderstorms and Rain,0,2014-03-28 11:53:00
7:04 AM,63.0,62.1,97,29.91,2.0,WSW,5.8,-,0.10,Rain-Thunderstorm,Heavy Thunderstorms and Rain,240,2014-03-28 12:04:00
7:11 AM,63.0,62.1,97,29.93,1.0,SSE,6.9,-,0.31,Rain-Thunderstorm,Heavy Thunderstorms and Rain,160,2014-03-28 12:11:00
7:53 AM,62.1,62.1,100,29.90,2.0,Calm,Calm,-,0.75,Rain-Thunderstorm,Light Thunderstorms and Rain,0,2014-03-28 12:53:00
7:57 AM,62.1,62.1,100,29.91,1.8,Calm,Calm,-,0.00,Rain-Thunderstorm,Light Rain,0,2014-03-28 12:57:00
8:17 AM,63.0,61.0,93,29.93,1.2,Variable,3.5,-,0.00,,Overcast,0,2014-03-28 13:17:00
8:21 AM,63.0,62.1,97,29.92,3.0,SE,3.5,-,0.00,Thunderstorm,Overcast,130,2014-03-28 13:21:00
8:31 AM,63.0,62.1,97,29.94,7.0,ESE,3.5,-,0.00,Thunderstorm,Overcast,120,2014-03-28 13:31:00
8:42 AM,63.0,62.1,97,29.94,6.0,Calm,Calm,-,0.00,,Overcast,0,2014-03-28 13:42:00
8:53 AM,63.0,62.1,97,29.93,9.0,Calm,Calm,-,0.00,,Overcast,0,2014-03-28 13:53:00
9:43 AM,63.0,62.1,97,29.97,10.0,SE,5.8,-,N/A,,Overcast,130,2014-03-28 14:43:00
9:53 AM,63.0,62.1,97,29.95,10.0,East,3.5,-,N/A,,Overcast,90,2014-03-28 14:53:00
10:27 AM,64.0,63.0,96,29.96,6.0,Calm,Calm,-,N/A,,Overcast,0,2014-03-28 15:27:00
10:34 AM,64.0,63.0,96,29.96,4.0,Calm,Calm,-,N/A,,Overcast,0,2014-03-28 15:34:00
10:45 AM,64.9,63.0,93,29.96,9.0,SE,4.6,-,N/A,,Overcast,140,2014-03-28 15:45:00
10:53 AM,64.9,64.0,97,29.95,6.0,South,5.8,-,N/A,,Overcast,170,2014-03-28 15:53:00
11:32 AM,66.0,64.0,93,29.96,10.0,East,4.6,-,N/A,,Overcast,80,2014-03-28 16:32:00
11:44 AM,66.9,64.0,90,29.97,10.0,ENE,6.9,-,N/A,,Overcast,70,2014-03-28 16:44:00
11:53 AM,66.0,64.0,93,29.96,10.0,Variable,5.8,-,N/A,,Overcast,0,2014-03-28 16:53:00
12:53 PM,66.9,64.0,90,29.94,10.0,East,6.9,-,0.00,,Overcast,100,2014-03-28 17:53:00
1:32 PM,70.0,64.9,84,29.93,10.0,ESE,5.8,-,N/A,,Overcast,110,2014-03-28 18:32:00
1:53 PM,72.0,66.0,81,29.92,10.0,SE,5.8,-,N/A,,Overcast,140,2014-03-28 18:53:00
2:27 PM,71.1,64.9,81,29.90,10.0,SSE,11.5,-,N/A,,Overcast,150,2014-03-28 19:27:00
2:53 PM,68.0,64.0,87,29.90,10.0,ESE,8.1,-,N/A,,Overcast,120,2014-03-28 19:53:00
3:08 PM,68.0,64.0,87,29.90,10.0,SE,5.8,-,N/A,,Overcast,140,2014-03-28 20:08:00
3:53 PM,68.0,62.1,81,29.88,10.0,SE,9.2,17.3,N/A,,Overcast,140,2014-03-28 20:53:00
4:53 PM,66.0,61.0,84,29.88,10.0,SE,6.9,-,N/A,,Overcast,130,2014-03-28 21:53:00
5:35 PM,66.9,62.1,84,29.87,10.0,SE,4.6,-,N/A,,Scattered Clouds,130,2014-03-28 22:35:00
5:53 PM,66.9,62.1,84,29.86,8.0,SSE,8.1,-,N/A,,Clear,150,2014-03-28 22:53:00
6:33 PM,66.0,62.1,87,29.87,10.0,SE,8.1,-,N/A,,Mostly Cloudy,140,2014-03-28 23:33:00
6:53 PM,66.0,62.1,87,29.86,9.0,SE,5.8,-,N/A,,Overcast,130,2014-03-28 23:53:00
7:25 PM,64.9,62.1,90,29.89,10.0,SSE,12.7,-,N/A,,Overcast,150,2014-03-29 00:25:00
7:53 PM,64.0,61.0,90,29.87,10.0,SSE,15.0,-,N/A,,Overcast,160,2014-03-29 00:53:00
8:53 PM,62.1,60.1,93,29.88,10.0,SSE,9.2,-,N/A,,Overcast,150,2014-03-29 01:53:00
9:53 PM,62.1,60.1,93,29.84,10.0,SSE,12.7,-,N/A,,Overcast,160,2014-03-29 02:53:00
10:53 PM,63.0,60.1,90,29.88,10.0,South,9.2,-,N/A,,Overcast,190,2014-03-29 03:53:00
11:33 PM,63.0,60.1,90,29.92,10.0,South,11.5,-,N/A,Thunderstorm,Thunderstorm,190,2014-03-29 04:33:00
11:44 PM,61.0,57.9,90,30.01,1.8,West,19.6,41.4,0.13,Rain-Thunderstorm,Heavy Thunderstorms and Rain,260,2014-03-29 04:44:00
11:53 PM,59.0,57.0,93,29.98,1.2,West,11.5,26.5,0.32,Rain-Thunderstorm,Heavy Thunderstorms and Rain,270,2014-03-29 04:53:00
11:58 PM,59.0,57.0,93,29.98,2.0,West,12.7,-,0.02,Rain-Thunderstorm,Heavy Thunderstorms and Rain,270,2014-03-29 04:58:00